Regional Weather Roundup
Issued by NWS

Home | Current Version | Previous Version | Text Only | Print | Product List | Glossary Off
Versions: 1 2 3 4 5 6 7 8 9 10 11 12 13 14 15 16 17 18 19 20 21 22 23 24 25 26 27 28 29 30 31 32 33 34 35 36 37 38 39 40 41 42 43 44 45 46 47 48 49 50

000
ASUS45 KBOI 030410
RWRID
WEATHER ROUNDUP FOR IDAHO
NATIONAL WEATHER SERVICE BOISE ID
900 PM MST MON MAR 02 2015

NOTE: "FAIR" INDICATES FEW OR NO CLOUDS BELOW 12000 FEET
WITH NO SIGNIFICANT WEATHER AND/OR OBSTRUCTIONS TO VISIBILITY

IDZ012-014-030500-
SOUTHWEST IDAHO


CITY           SKY/WX    TMP DP  RH WIND       PRES   REMARKS
BOISE          CLOUDY    42  23  46 NW20G25   29.77R
CALDWELL       CLOUDY    43  23  45 NW17      29.82R
MOUNTAIN HOME  MOCLDY    40  21  46 NW15      29.75R WCI  32
$$

IDZ016-017-030500-
SOUTHCENTRAL IDAHO


CITY           SKY/WX    TMP DP  RH WIND       PRES   REMARKS
BURLEY         FAIR      36  18  48 W14G21    29.68R WCI  27
JEROME         FAIR      36  20  52 SW12      29.70R WCI  28
TWIN FALLS     FAIR      37  20  50 SW13      29.71R WCI  29
$$

IDZ019>023-030500-
SOUTHEAST IDAHO


CITY           SKY/WX    TMP DP  RH WIND       PRES   REMARKS
IDAHO FALLS    FAIR      32  24  72 S5        29.64S WCI  27
POCATELLO      FAIR      31  23  72 S10       29.67R WCI  22
REXBURG        FAIR      32  32 100 S5        29.63R WCI  27
$$

IDZ006-010-011-018-031-032-030500-
CENTRAL IDAHO MOUNTAINS


CITY           SKY/WX    TMP DP  RH WIND       PRES   REMARKS
MCCALL         LGT SNOW  28  24  85 W5        29.73R FOG     WCI  23
HAILEY         PTCLDY    36  18  48 NW6       29.64R WCI  31
STANLEY          N/A     30  15  53 W3        29.66S
SALMON         FAIR      36  18  48 N14       29.69R WCI  27
CHALLIS        CLOUDY    34  17  50 N12       29.65R WCI  25
$$

IDZ002-004-006-007-026-030500-
NORTHERN IDAHO


CITY           SKY/WX    TMP DP  RH WIND       PRES   REMARKS
LEWISTON       CLOUDY    39  32  76 CALM      29.95R
LOWELL           N/A     35  33  92 CALM      29.93R
COEUR D`ALENE  CLOUDY    30  21  69 N17G23    29.95R WCI  18
MULLAN PASS    LGT SNOW  14  12  92 CALM      29.77R VSB 3/4
$$


USA.gov is the U.S. government's official web portal to all federal, state and local government web resources and services.